loading
DOY 198 | 2024-07-16T12:03:16Z

THOR ABLESTAR DEB, 148

Orbit data source: Space-Track

THOR ABLESTAR DEB, 148 is space debris in LEO originally from a launch on Thu, 29 Jun 1961 UTC launched from the Air Force Eastern Test Range (AFETR). Debris objects in space refer to the collection of defunct objects orbiting the Earth. Examples of debris include non-operational satellites, rocket bodies, and fragments generated from explosions, collisions, or faulty payload assembly.

Loading next visibility...
Loading greatness...
THOR ABLESTAR DEB details
NORAD ID148
COSPAR ID
1961-015AJ
Orbit
LEO
Last TLE update7 hours ago
Origin
Flag of USUSAF SSD (US)
ManufacturerUnknown
BusUnknown
MotorUnknown
MassWet unknown, Dry mass unknown
Launch date (UTC)
1961-06-29 (63 years ago)
Launch vehicleUnknown
Launch site
Air Force Eastern Test Range (AFETR)
Object type
Payload
Rocket body
Debris
Radar Cross SectionMedium (>0.1 m² and <1 m²)
Predictive object data (real-time)
Latitude20.74992°
Longitude152.53014°
Altitude820.46 km
Speed7.469 km/s
Apparent Right ascension11h 40m 35s
Apparent Declination-7° 42' 46"
Sunlit
Object is in daylight
Predictive observer data (real-time)
Local Sidereal Time00:42:04
Azimuth27.244° NE
Elevation-54.982°
Doppler factor1
Orbital elements
Apogee975.233 km
Perigee752.878 km
Semi-major axis7,242.193 km
Eccentricity0.0153513
Inclination65.7734°
RAAN155.0225°
Arg. of periapsis317.0438°
True anomaly43.06452°
Mean anomaly41.8734°
Mean motion3.52158 °/min
BSTAR0.001436
Period102.23 mins
Definitive object data (Epoch: 2024-07-16T05:07:51.431Z)
Latitude-0.00009°
Longitude143.52228°
Altitude785.533 km
Speed7.504 km/s
True Right ascension10h 20m 05s
True Declination0° 00' 00"
Sunlit
Object was in daylight at TLE epoch
TLE from 7 hours ago
0 THOR ABLESTAR DEB
1   148U 61015AJ  24198.21378972  .00002647  00000-0  14360-2 0  9994
2   148  65.7734 155.0225 0153513 317.0438  41.8734 14.08194792660656
Epoch: 2024-07-16T05:07Z
No data available

THOR ABLESTAR DEB Visibility forecast

Observer location: 39.9160978°, -105.1181434

THOR ABLESTAR DEB is not visible in the next 10 days
Span
Click to sort rows by Start time (UTC) header in descending order
Start Az.
Max El. time (UTC)
Max El. Az.
Max El.
End time (UTC)
End Az.